FW4350 Weather Reports


time (UTC)temp
F
wind
direction
speed
knots
gust
knots
rain 1hr
in
rain 24hr
in
rain mn
in
humidity
%
barometer
mb
20260504042959 57 238 0.9 3.5 0.00 0.00 0.00 60 1005.4
20260504042459 58 229 0.0 3.5 0.00 0.00 0.00 60 1005.4
20260504042000 58 241 0.9 3.5 0.00 0.00 0.00 60 1005.4
20260504041458 58 211 0.0 4.3 0.00 0.00 0.00 59 1005.4
20260504041000 58 211 0.0 5.2 0.00 0.00 0.00 59 1005.4
20260504040005 58 227 0.0 4.3 0.00 0.00 0.00 58 1005.4
20260504035459 58 225 0.9 4.3 0.00 0.00 0.00 58 1005.5
20260504034959 58 225 0.9 3.5 0.00 0.00 0.00 58 1005.5
20260504034458 58 220 0.9 3.5 0.00 0.00 0.00 58 1005.5
20260504034001 58 226 0.0 2.6 0.00 0.00 0.00 57 1005.8
20260504033459 58 228 0.0 2.6 0.00 0.00 0.00 57 1005.8
20260504032959 58 236 0.0 2.6 0.00 0.00 0.00 57 1005.8
20260504032459 59 236 0.0 2.6 0.00 0.00 0.00 56 1005.9
20260504032000 58 240 0.0 1.7 0.00 0.00 0.00 56 1005.9
20260504031458 59 240 0.0 1.7 0.00 0.00 0.00 56 1005.9
20260504030500 59 227 0.0 1.7 0.00 0.00 0.00 56 1005.9
20260504025958 59 227 0.0 1.7 0.00 0.00 0.00 56 1005.9
20260504025457 59 230 0.0 2.6 0.00 0.00 0.00 55 1005.9
20260504024958 59 230 0.0 2.6 0.00 0.00 0.00 55 1005.9
20260504024458 59 230 0.0 1.7 0.00 0.00 0.00 55 1005.9
20260504023959 60 229 0.0 5.2 0.00 0.00 0.00 54 1005.9
20260504023457 60 235 0.0 5.2 0.00 0.00 0.00 54 1005.9
20260504022457 60 211 0.0 1.7 0.00 0.00 0.00 53 1005.8
20260504022003 60 211 0.0 1.7 0.00 0.00 0.00 53 1005.8
20260504021457 61 211 0.0 2.6 0.00 0.00 0.00 53 1005.8
20260504020457 61 228 0.0 1.7 0.00 0.00 0.00 52 1005.7
20260504015958 61 228 0.0 1.7 0.00 0.00 0.00 52 1005.7
20260504015457 61 229 0.9 4.3 0.00 0.00 0.00 51 1005.4
20260504014958 61 229 0.9 4.3 0.00 0.00 0.00 51 1005.4
20260504014457 62 236 0.9 5.2 0.00 0.00 0.00 51 1005.4
20260504014000 62 229 0.0 5.2 0.00 0.00 0.00 50 1005.3
20260504013500 62 253 0.0 4.3 0.00 0.00 0.00 50 1005.3
20260504012958 62 229 0.9 3.5 0.00 0.00 0.00 50 1005.3
20260504011958 63 263 0.9 4.3 0.00 0.00 0.00 49 1005.3
20260504011459 63 256 0.9 4.3 0.00 0.00 0.00 49 1005.3
20260504011004 63 225 0.9 3.5 0.00 0.00 0.00 48 1005.2
20260504010458 63 248 0.9 6.1 0.00 0.00 0.00 48 1005.2
20260504010004 64 237 0.9 6.1 0.00 0.00 0.00 47 1005.2
20260504005458 64 205 0.9 4.3 0.00 0.00 0.00 47 1005.3
20260504004959 65 200 0.0 1.7 0.00 0.00 0.00 46 1005.3
20260504004001 65 225 0.9 5.2 0.00 0.00 0.00 44 1005.3
20260504003459 65 213 0.9 4.3 0.00 0.00 0.00 44 1005.3
20260504002458 66 219 0.9 4.3 0.00 0.00 0.00 42 1005.3
20260504002001 66 232 0.9 4.3 0.00 0.00 0.00 42 1005.3
20260504001459 66 242 1.7 5.2 0.00 0.00 0.00 42 1005.3
20260504001005 67 211 1.7 6.1 0.00 0.00 0.00 41 1005.3
20260504000458 67 234 0.9 6.1 0.00 0.00 0.00 41 1005.3
20260504000009 67 223 1.7 6.1 0.00 0.00 0.00 41 1005.3
20260503235458 67 246 1.7 6.1 0.00 0.00 0.00 40 1005.3
20260503235001 67 229 1.7 6.1 0.00 0.00 0.00 40 1005.3
20260503234457 67 270 1.7 6.1 0.00 0.00 0.00 40 1005.3
20260503233957 68 261 1.7 6.1 0.00 0.00 0.00 40 1005.3
20260503233500 68 285 1.7 6.1 0.00 0.00 0.00 38 1005.3
20260503232959 68 288 2.6 6.1 0.00 0.00 0.00 38 1005.3
20260503232457 68 225 2.6 6.1 0.00 0.00 0.00 38 1005.3
20260503231958 69 163 2.6 9.6 0.00 0.00 0.00 40 1005.3
20260503231458 69 235 2.6 8.7 0.00 0.00 0.00 39 1005.3
20260503231000 69 219 2.6 7.8 0.00 0.00 0.00 38 1005.3
20260503230457 69 146 2.6 9.6 0.00 0.00 0.00 37 1005.3
20260503225958 69 214 2.6 9.6 0.00 0.00 0.00 41 1005.3
20260503224504 69 200 2.6 10.4 0.00 0.00 0.00 37 1005.4
20260503223958 70 231 1.7 10.4 0.00 0.00 0.00 38 1005.7
20260503223458 70 200 0.9 8.7 0.00 0.00 0.00 40 1005.7
20260503221958 69 241 0.9 9.6 0.00 0.00 0.00 39 1005.8
20260503221500 69 209 1.7 9.6 0.00 0.00 0.00 38 1005.8
20260503220959 68 225 1.7 7.8 0.00 0.00 0.00 38 1005.9
20260503220506 68 206 0.9 5.2 0.00 0.00 0.00 39 1005.9
20260503215459 67 206 1.7 10.4 0.00 0.00 0.00 38 1006.0
20260503215005 67 217 2.6 10.4 0.00 0.00 0.00 37 1006.0
20260503214457 68 186 2.6 7.8 0.00 0.00 0.00 40 1006.0
20260503213457 68 219 1.7 14.8 0.00 0.00 0.00 39 1006.4
20260503212458 67 189 1.7 11.3 0.00 0.00 0.00 40 1006.6
20260503211957 66 241 1.7 8.7 0.00 0.00 0.00 41 1006.6
20260503210959 66 218 2.6 9.6 0.00 0.00 0.00 37 1006.9
20260503210457 66 263 2.6 9.6 0.00 0.00 0.00 39 1006.9
20260503205958 66 171 2.6 10.4 0.00 0.00 0.00 38 1006.9
20260503204959 67 226 3.5 12.2 0.00 0.00 0.00 37 1007.1
20260503204457 67 215 3.5 9.6 0.00 0.00 0.00 37 1007.1
20260503203458 67 135 3.5 11.3 0.00 0.00 0.00 36 1007.5
20260503202457 68 229 3.5 8.7 0.00 0.00 0.00 35 1007.8
20260503201458 67 275 3.5 10.4 0.00 0.00 0.00 36 1007.8
20260503200958 67 236 3.5 10.4 0.00 0.00 0.00 36 1007.8
20260503200458 67 173 3.5 10.4 0.00 0.00 0.00 37 1007.8
20260503200002 67 235 3.5 10.4 0.00 0.00 0.00 40 1007.8
20260503195001 66 133 2.6 7.0 0.00 0.00 0.00 43 1007.9
20260503194459 65 163 2.6 8.7 0.00 0.00 0.00 44 1007.9
20260503193959 65 172 1.7 8.7 0.00 0.00 0.00 47 1008.0
20260503193505 64 171 1.7 7.0 0.00 0.00 0.00 47 1008.0
20260503193004 64 266 1.7 9.6 0.00 0.00 0.00 48 1008.0
20260503192459 63 149 2.6 9.6 0.00 0.00 0.00 45 1008.4
20260503192004 63 206 1.7 9.6 0.00 0.00 0.00 49 1008.4
20260503191457 62 211 1.7 9.6 0.00 0.00 0.00 51 1008.4
20260503191006 62 240 2.6 9.6 0.00 0.00 0.00 52 1008.5
20260503190458 61 188 2.6 10.4 0.00 0.00 0.00 53 1008.5
20260503185958 61 186 2.6 7.8 0.00 0.00 0.00 53 1008.5
20260503185456 60 280 1.7 7.8 0.00 0.00 0.00 54 1008.9
20260503184959 60 166 1.7 7.0 0.00 0.00 0.00 53 1008.9
20260503184500 60 235 1.7 7.0 0.00 0.00 0.00 55 1008.9
20260503183959 59 204 1.7 7.0 0.00 0.00 0.00 55 1009.4
20260503183459 59 187 1.7 6.1 0.00 0.00 0.00 58 1009.4
20260503182958 58 170 1.7 5.2 0.00 0.00 0.00 59 1009.4
20260503182457 57 188 0.9 7.8 0.00 0.00 0.00 63 1009.5
20260503181959 56 213 0.9 7.8 0.00 0.00 0.00 61 1009.5
20260503181457 55 247 1.7 5.2 0.00 0.00 0.00 63 1009.5
20260503180956 55 222 1.7 5.2 0.00 0.00 0.00 62 1009.9
20260503180459 55 176 1.7 5.2 0.00 0.00 0.00 63 1009.9
20260503175456 53 215 0.0 2.6 0.00 0.00 0.00 66 1010.5
20260503174957 53 155 0.9 2.6 0.00 0.00 0.00 68 1010.5
20260503173958 52 313 0.9 2.6 0.00 0.00 0.00 71 1011.0
20260503173456 52 198 0.9 2.6 0.00 0.00 0.00 72 1011.0
20260503173000 51 221 0.9 3.5 0.00 0.00 0.00 72 1011.0
20260503172456 51 259 0.9 3.5 0.00 0.00 0.00 73 1011.6
20260503171957 51 198 0.9 2.6 0.00 0.00 0.00 75 1011.6
20260503171457 51 242 0.9 4.3 0.00 0.00 0.00 72 1011.6
20260503170456 51 238 0.9 4.3 0.00 0.00 0.00 69 1011.8
20260503131006 48 227 0.9 7.0 0.00 0.00 0.00 58 1013.7
20260503130458 48 243 1.7 7.0 0.00 0.00 0.00 59 1013.7
20260503090458 44 231 0.0 3.5 0.00 0.00 0.00 57 1013.8
20260503081457 44 210 0.0 0.0 0.00 0.00 0.00 56 1014.1
20260503080958 44 209 0.0 0.0 0.00 0.00 0.00 55 1014.1
20260503080455 44 250 0.0 0.0 0.00 0.00 0.00 55 1014.1
20260503072456 44 249 0.0 0.0 0.00 0.00 0.00 54 1014.2
20260503071956 44 249 0.0 0.0 0.00 0.00 0.00 54 1014.2
20260503071455 44 245 0.0 0.0 0.00 0.00 0.00 55 1014.2
20260503070958 44 245 0.0 0.0 0.00 0.00 0.00 54 1014.3
20260503070454 44 245 0.0 0.0 0.00 0.00 0.00 54 1014.3
20260503055000 45 242 0.0 0.0 0.00 0.00 0.00 53 1014.9
20260503054500 45 242 0.0 0.0 0.00 0.00 0.00 52 1014.9
20260503053502 45 242 0.0 0.0 0.00 0.00 0.00 52 1015.0
20260503053004 45 242 0.0 0.0 0.00 0.00 0.00 51 1015.0
20260503052504 45 244 0.0 0.0 0.00 0.00 0.00 51 1015.2
20260503052000 45 244 0.0 0.0 0.00 0.00 0.00 52 1015.2
20260503051459 45 244 0.0 0.0 0.00 0.00 0.00 52 1015.2
20260503051004 45 244 0.0 0.0 0.00 0.00 0.00 52 1015.3
20260503050504 45 244 0.0 0.0 0.00 0.00 0.00 51 1015.3
20260503050008 45 244 0.0 0.0 0.00 0.00 0.00 51 1015.3
20260503045005 46 244 0.0 0.0 0.00 0.00 0.00 52 1015.3
20260503044503 46 244 0.0 0.0 0.00 0.00 0.00 51 1015.3
20260503043500 46 244 0.0 0.0 0.00 0.00 0.00 51 1015.3